Regional Weather Roundup
Issued by NWS

Home | Current Version | Previous Version | Text Only | Print | Product List | Glossary On
Versions: 1 2 3 4 5 6 7 8 9 10 11 12 13 14 15 16 17 18 19 20 21 22 23 24 25 26 27 28 29 30 31 32 33 34 35 36 37 38 39 40 41 42 43 44 45 46 47 48 49 50
000
ASUS43 KTOP 200208
RWRKS

WEATHER ROUNDUP FOR KANSAS
NATIONAL WEATHER SERVICE GOODLAND KS
900 PM CDT FRI SEP 19 2014

NOTE:  "FAIR" INDICATES FEW OR NO CLOUDS BELOW 12,000 FEET WITH NO
SIGNIFICANT WEATHER AND/OR OBSTRUCTIONS TO VISIBILITY.

KSZ001>006-013>018-027>032-041>047-200300-
NORTHWEST KANSAS

CITY           SKY/WX    TMP DP  RH WIND       PRES   REMARKS
GOODLAND       CLEAR     75  60  59 S14       29.92R
HAYS           CLEAR     77  61  57 S14       29.89R
HILL CITY      PTCLDY    78  59  51 S9        29.87R
RUSSELL        PTCLDY    75  62  64 S10       29.87R
$$

KSZ061>065-074>080-084>089-200300-
SOUTHWEST KANSAS

CITY           SKY/WX    TMP DP  RH WIND       PRES   REMARKS
DODGE CITY     CLEAR     76  57  51 S12       29.93R
ELKHART          N/A     71  59  66 S12         N/A
GARDEN CITY    MOCLDY    75  58  55 S9        29.93R
GREAT BEND     CLEAR     77  59  53 S9        29.91R
LIBERAL        MOCLDY    79  57  47 S14       29.97R
PRATT          CLEAR     79  55  44 S9        29.94R
$$

KSZ066>073-081>083-090>101-200300-
SOUTHEAST KANSAS

CITY           SKY/WX    TMP DP  RH WIND       PRES   REMARKS
CHANUTE        CLEAR     68  67  96 SE6       29.98R FOG
COFFEYVILLE    CLEAR     69  68  96 CALM      29.97R FOG
HUTCHINSON     CLEAR     79  62  56 SE14      29.92R
MEDICINE LODGE   N/A     80  61  52 S7        29.92R
NEWTON         CLEAR     75  63  64 S12       29.97R
PARSONS        CLEAR     67  67 100 CALM      29.99R FOG
WICHITA INTL   PTCLDY    78  65  63 SE15      29.93R
WICHITA JABRA  CLEAR     76  66  71 S12       29.94R
WICHITA MCCONL CLEAR     76  68  75 SE13      29.95R
WINFIELD       CLEAR     74  69  85 SE8       29.97R
$$

KSZ007>012-019>026-033>040-048>060-102>105-200300-
NORTHEAST KANSAS

CITY           SKY/WX    TMP DP  RH WIND       PRES   REMARKS
CONCORDIA      CLEAR     77  66  68 S10       29.87R
EMPORIA        CLEAR     70  68  93 S14       29.95R FOG
LAWRENCE       CLEAR     72  67  84 S10       29.93R
MANHATTAN      CLEAR     74  69  85 S13       29.88R
MARYSVILLE     CLEAR     73  70  88 S13G18    29.88R
OLATHE IND     CLEAR     71  67  87 S9        29.96R
OLATHE EXE     CLEAR     72  68  87 S8        29.95R
SALINA         PTCLDY    80  66  62 S15       29.89R
TOPEKA BILLARD CLEAR     74  69  85 S10       29.92R
TOPEKA FORBES  CLEAR     72  67  84 S10       29.93R
$$


USA.gov is the U.S. government's official web portal to all federal, state and local government web resources and services.